Back to catalog

GEESAT 3-10

AliveCommunicationsLEO
NORAD 61020·PAYLOAD·🇨🇳 China

Launched Sep 5, 2024 from Taiyuan Satellite Launch Center

Loading…

Next Passes (next 24 hours)

TLE

FreshSource: Space-Track

Epoch: Sep 14, 2026, 13:33 UTC

1 61020U 24159K   26257.56476614  .00001464  00000-0  19874-3 0  9998
2 61020  50.0007  28.5845 0003824  97.8266 262.3107 14.84494911109781

Track GEESAT 3-10 in real time with AllMySat

Download on the App Store